Back to catalog

CAMOES

AliveScienceSSO
NORAD 68507·PAYLOAD·🇵🇹 Portugal

Launched Mar 30, 2026 from Vandenberg Space Force Base

Loading…

Next Passes (next 24 hours)

TLE

FreshSource: Space-Track

Epoch: Sep 14, 2026, 14:49 UTC

1 68507U 26067CV  26257.61742669  .00007249  00000-0  34443-3 0  9993
2 68507  97.4742 215.0468 0004801 108.8927 251.2828 15.19509392 25497

Track CAMOES in real time with AllMySat

Download on the App Store